sat.trackr.live / text

‹ back to catalog

STARLINK-35793

NORAD 67179 · 2025-303S

PAYLOAD ACTIVE UNKNOWN

§ Identity

Operator
Country
US
Launch date
2025-12-17
Launch site
AFETR
Launch vehicle
Mass (kg)
RCS (m²)

Purposes: comms

External: N2YO · Heavens-Above · Gunter

§ Orbital elements

Epoch: 2026-05-24T23:32:12.747840Z

Period
94.27 min
Inclination
42.9977°
Eccentricity
0.0000558
Mean motion
15.27583778 rev/d
Perigee alt
482.7 km
Apogee alt
483.4 km
Semi-major
6,861.2 km
B*
1.0388e-3
RAAN
239.8000°
Arg perigee
289.0728°
Mean anomaly
71.0063°
Rev number
2,440

§ Raw data

STARLINK-357931 67179U 25303S   26144.98070310  .00028436  00000+0  10388-2 0  99922 67179  42.9977 239.8000 0000558 289.0728  71.0063 15.27583778 24406

JSON: /api/v1/satellites/67179 · /tle

For live sub-satellite position, see the globe view (requires WebGL).

§ Visibility from observer

Set your observer location to see the next 7 days of passes ≥ 10°. The values pass through the URL so the page stays shareable.

No JS? Fill the form by hand. The geolocation button needs JavaScript.